Time,TemperatureF,DewpointF,PressureIn,WindDirection,WindDirectionDegrees,WindSpeedMPH,WindSpeedGustMPH,Humidity,HourlyPrecipIn,Conditions,Clouds,dailyrainin,SoftwareType,DateUTC
2013-08-02 00:03:00,65.0,-99.9,-100.00,SE,135,11.0,-999.0,94,-99.99,,,-99.99,,2013-08-02 05:03:00,
2013-08-02 00:22:00,64.0,-99.9,-100.00,SSE,158,15.0,-999.0,93,-99.99,,,-99.99,,2013-08-02 05:22:00,
2013-08-02 00:32:00,65.0,-99.9,-100.00,SE,135,11.0,-999.0,92,-99.99,,,-99.99,,2013-08-02 05:32:00,
2013-08-02 00:43:00,65.0,-99.9,-100.00,SE,135,11.0,-999.0,92,-99.99,,,-99.99,,2013-08-02 05:43:00,
2013-08-02 00:53:00,67.0,-99.9,-100.00,SE,135,13.0,-999.0,92,-99.99,,,-99.99,,2013-08-02 05:53:00,
2013-08-02 01:02:00,67.0,-99.9,-100.00,SSE,158,13.0,-999.0,92,-99.99,,,-99.99,,2013-08-02 06:02:00,
2013-08-02 01:22:00,69.0,-99.9,-100.00,SSE,158,10.0,-999.0,91,-99.99,,,-99.99,,2013-08-02 06:22:00,
2013-08-02 01:33:00,68.0,-99.9,-100.00,SSE,158,1.0,-999.0,91,-99.99,,,-99.99,,2013-08-02 06:33:00,
2013-08-02 01:43:00,68.0,-99.9,-100.00,SSE,158,1.0,-999.0,91,-99.99,,,-99.99,,2013-08-02 06:43:00,
2013-08-02 01:53:00,68.0,-99.9,-100.00,SSW,203,6.0,-999.0,91,-99.99,,,-99.99,,2013-08-02 06:53:00,
2013-08-02 02:02:00,69.0,-99.9,-100.00,ESE,113,2.0,-999.0,89,-99.99,,,-99.99,,2013-08-02 07:02:00,
2013-08-02 02:12:00,69.0,-99.9,-100.00,ESE,113,2.0,-999.0,89,-99.99,,,-99.99,,2013-08-02 07:12:00,
2013-08-02 02:23:00,69.0,-99.9,-100.00,ESE,113,2.0,-999.0,89,-99.99,,,-99.99,,2013-08-02 07:23:00,
2013-08-02 02:33:00,68.0,-99.9,-100.00,NE,45,10.0,-999.0,89,-99.99,,,-99.99,,2013-08-02 07:33:00,
2013-08-02 02:44:00,68.0,-99.9,-100.00,NE,45,10.0,-999.0,89,-99.99,,,-99.99,,2013-08-02 07:44:00,
2013-08-02 02:53:00,68.0,-99.9,-100.00,SE,135,6.0,-999.0,89,-99.99,,,-99.99,,2013-08-02 07:53:00,
2013-08-02 03:02:00,68.0,-99.9,-100.00,SSE,158,5.0,-999.0,89,-99.99,,,-99.99,,2013-08-02 08:02:00,
2013-08-02 03:12:00,68.0,-99.9,-100.00,SSE,158,5.0,-999.0,89,-99.99,,,-99.99,,2013-08-02 08:12:00,
2013-08-02 03:22:00,67.0,-99.9,-100.00,East,90,6.0,-999.0,90,-99.99,,,-99.99,,2013-08-02 08:22:00,
2013-08-02 03:33:00,66.0,-99.9,-100.00,East,90,2.0,-999.0,90,-99.99,,,-99.99,,2013-08-02 08:33:00,
2013-08-02 03:44:00,66.0,-99.9,-100.00,East,90,2.0,-999.0,90,-99.99,,,-99.99,,2013-08-02 08:44:00,
2013-08-02 03:54:00,65.0,-99.9,-100.00,ESE,113,1.0,-999.0,91,-99.99,,,-99.99,,2013-08-02 08:54:00,
2013-08-02 04:02:00,64.0,-99.9,-100.00,East,90,3.0,-999.0,91,-99.99,,,-99.99,,2013-08-02 09:02:00,
2013-08-02 04:22:00,63.0,61.0,-100.00,ESE,113,2.0,-999.0,91,-99.99,,,-99.99,,2013-08-02 09:22:00,
2013-08-02 04:33:00,63.0,60.0,-100.00,ESE,113,2.0,-999.0,91,-99.99,,,-99.99,,2013-08-02 09:33:00,
2013-08-02 04:43:00,63.0,60.0,-100.00,ESE,113,2.0,-999.0,91,-99.99,,,-99.99,,2013-08-02 09:43:00,
2013-08-02 04:53:00,62.0,59.0,-100.00,East,90,1.0,-999.0,91,-99.99,,,-99.99,,2013-08-02 09:53:00,
2013-08-02 05:03:00,61.0,59.0,-100.00,ENE,68,1.0,-999.0,91,-99.99,,,-99.99,,2013-08-02 10:03:00,
2013-08-02 05:23:00,62.0,59.0,-100.00,NE,45,1.0,-999.0,91,-99.99,,,-99.99,,2013-08-02 10:23:00,
2013-08-02 05:33:00,61.0,59.0,-100.00,NE,45,1.0,-999.0,92,-99.99,,,-99.99,,2013-08-02 10:33:00,
2013-08-02 05:44:00,61.0,-99.9,-100.00,NE,45,1.0,-999.0,92,-99.99,,,-99.99,,2013-08-02 10:44:00,
2013-08-02 05:52:00,60.0,58.0,-100.00,ESE,113,1.0,-999.0,92,-99.99,,,-99.99,,2013-08-02 10:52:00,
2013-08-02 06:02:00,60.0,-99.9,-100.00,ESE,113,1.0,-999.0,92,-99.99,,,-99.99,,2013-08-02 11:02:00,
2013-08-02 06:23:00,60.0,57.0,-100.00,SE,135,3.0,-999.0,92,-99.99,,,-99.99,,2013-08-02 11:23:00,
2013-08-02 06:32:00,60.0,58.0,-100.00,South,180,4.0,-999.0,92,-99.99,,,-99.99,,2013-08-02 11:32:00,
2013-08-02 06:43:00,60.0,58.0,-100.00,South,180,4.0,-999.0,92,-99.99,,,-99.99,,2013-08-02 11:43:00,
2013-08-02 06:52:00,62.0,-99.9,-100.00,NNE,23,1.0,-999.0,92,-99.99,,,-99.99,,2013-08-02 11:52:00,
2013-08-02 07:02:00,61.0,58.0,-100.00,South,180,2.0,-999.0,92,-99.99,,,-99.99,,2013-08-02 12:02:00,
2013-08-02 07:22:00,61.0,-99.9,-100.00,South,180,5.0,-999.0,92,-99.99,,,-99.99,,2013-08-02 12:22:00,
2013-08-02 07:33:00,62.0,-99.9,-100.00,SSE,158,6.0,-999.0,92,-99.99,,,-99.99,,2013-08-02 12:33:00,
2013-08-02 07:43:00,62.0,-99.9,-100.00,SSE,158,6.0,-999.0,92,-99.99,,,-99.99,,2013-08-02 12:43:00,
2013-08-02 07:52:00,62.0,-99.9,-100.00,SE,135,3.0,-999.0,92,-99.99,,,-99.99,,2013-08-02 12:52:00,
2013-08-02 08:03:00,62.0,-99.9,-100.00,SSW,203,6.0,-999.0,92,-99.99,,,-99.99,,2013-08-02 13:03:00,
2013-08-02 08:22:00,63.0,60.0,-100.00,South,180,7.0,-999.0,91,-99.99,,,-99.99,,2013-08-02 13:22:00,
2013-08-02 08:33:00,64.0,-99.9,-100.00,SSW,203,6.0,-999.0,90,-99.99,,,-99.99,,2013-08-02 13:33:00,
2013-08-02 08:43:00,64.0,-99.9,-100.00,SSW,203,6.0,-999.0,90,-99.99,,,-99.99,,2013-08-02 13:43:00,
2013-08-02 08:53:00,65.0,-99.9,-100.00,SSE,158,8.0,-999.0,90,-99.99,,,-99.99,,2013-08-02 13:53:00,
2013-08-02 09:02:00,65.0,-99.9,-100.00,South,180,7.0,-999.0,89,-99.99,,,-99.99,,2013-08-02 14:02:00,
2013-08-02 09:23:00,67.0,-99.9,-100.00,South,180,8.0,-999.0,88,-99.99,,,-99.99,,2013-08-02 14:23:00,
2013-08-02 09:33:00,69.0,-99.9,-100.00,SSW,203,8.0,-999.0,85,-99.99,,,-99.99,,2013-08-02 14:33:00,
2013-08-02 09:43:00,69.0,-99.9,-100.00,SSW,203,8.0,-999.0,85,-99.99,,,-99.99,,2013-08-02 14:43:00,
2013-08-02 09:53:00,70.0,-99.9,-100.00,SSW,203,5.0,-999.0,84,-99.99,,,-99.99,,2013-08-02 14:53:00,
2013-08-02 10:03:00,71.0,-99.9,-100.00,South,180,6.0,-999.0,82,-99.99,,,-99.99,,2013-08-02 15:03:00,
2013-08-02 10:22:00,74.0,-99.9,-100.00,SSW,203,6.0,-999.0,80,-99.99,,,-99.99,,2013-08-02 15:22:00,
2013-08-02 10:32:00,74.0,-99.9,-100.00,South,180,12.0,-999.0,78,-99.99,,,-99.99,,2013-08-02 15:32:00,
2013-08-02 10:43:00,74.0,-99.9,-100.00,South,180,12.0,-999.0,78,-99.99,,,-99.99,,2013-08-02 15:43:00,
2013-08-02 10:53:00,75.0,-99.9,-100.00,South,180,12.0,-999.0,77,-99.99,,,-99.99,,2013-08-02 15:53:00,
2013-08-02 11:02:00,76.0,-99.9,-100.00,SSW,203,11.0,-999.0,75,-99.99,,,-99.99,,2013-08-02 16:02:00,
2013-08-02 11:12:00,76.0,-99.9,-100.00,SSW,203,11.0,-999.0,75,-99.99,,,-99.99,,2013-08-02 16:12:00,
2013-08-02 11:22:00,76.0,-99.9,-100.00,SW,225,8.0,-999.0,74,-99.99,,,-99.99,,2013-08-02 16:22:00,
2013-08-02 11:32:00,76.0,-99.9,-100.00,SSW,203,9.0,-999.0,73,-99.99,,,-99.99,,2013-08-02 16:32:00,
2013-08-02 11:43:00,76.0,-99.9,-100.00,SSW,203,9.0,-999.0,73,-99.99,,,-99.99,,2013-08-02 16:43:00,
2013-08-02 11:53:00,78.0,-99.9,-100.00,SSW,203,7.0,-999.0,73,-99.99,,,-99.99,,2013-08-02 16:53:00,
2013-08-02 12:02:00,78.0,-99.9,-100.00,SW,225,5.0,-999.0,72,-99.99,,,-99.99,,2013-08-02 17:02:00,
2013-08-02 12:12:00,78.0,-99.9,-100.00,SW,225,5.0,-999.0,72,-99.99,,,-99.99,,2013-08-02 17:12:00,
2013-08-02 12:22:00,80.0,-99.9,-100.00,WSW,248,4.0,-999.0,70,-99.99,,,-99.99,,2013-08-02 17:22:00,
2013-08-02 12:35:00,81.0,-99.9,-100.00,SSW,203,3.0,-999.0,66,-99.99,,,-99.99,,2013-08-02 17:35:00,
2013-08-02 12:43:00,81.0,69.0,-100.00,SSW,203,3.0,-999.0,66,-99.99,,,-99.99,,2013-08-02 17:43:00,
2013-08-02 12:52:00,81.0,69.0,-100.00,SSE,158,3.0,-999.0,66,-99.99,,,-99.99,,2013-08-02 17:52:00,
2013-08-02 13:02:00,83.0,69.0,-100.00,SW,225,0.0,-999.0,63,-99.99,,,-99.99,,2013-08-02 18:02:00,
2013-08-02 13:22:00,82.0,69.0,-100.00,ENE,68,2.0,-999.0,64,-99.99,,,-99.99,,2013-08-02 18:22:00,
2013-08-02 13:32:00,81.0,69.0,-100.00,East,90,2.0,-999.0,66,-99.99,,,-99.99,,2013-08-02 18:32:00,
2013-08-02 13:43:00,81.0,69.0,-100.00,East,90,2.0,-999.0,66,-99.99,,,-99.99,,2013-08-02 18:43:00,
2013-08-02 13:52:00,84.0,70.0,-100.00,SSE,158,0.0,-999.0,62,-99.99,,,-99.99,,2013-08-02 18:52:00,
2013-08-02 14:02:00,85.0,68.0,-100.00,ENE,68,5.0,-999.0,58,-99.99,,,-99.99,,2013-08-02 19:02:00,
2013-08-02 14:22:00,84.0,69.0,-100.00,ENE,68,5.0,-999.0,59,-99.99,,,-99.99,,2013-08-02 19:22:00,
2013-08-02 14:32:00,85.0,68.0,-100.00,SSE,158,1.0,-999.0,57,-99.99,,,-99.99,,2013-08-02 19:32:00,
2013-08-02 14:43:00,85.0,68.0,-100.00,SSE,158,1.0,-999.0,57,-99.99,,,-99.99,,2013-08-02 19:43:00,
2013-08-02 14:52:00,86.0,69.0,-100.00,NE,45,6.0,-999.0,56,-99.99,,,-99.99,,2013-08-02 19:52:00,
2013-08-02 15:02:00,87.0,70.0,-100.00,East,90,5.0,-999.0,57,-99.99,,,-99.99,,2013-08-02 20:02:00,
2013-08-02 15:22:00,85.0,69.0,-100.00,NNE,23,8.0,-999.0,58,-99.99,,,-99.99,,2013-08-02 20:22:00,
2013-08-02 15:32:00,86.0,69.0,-100.00,ENE,68,7.0,-999.0,56,-99.99,,,-99.99,,2013-08-02 20:32:00,
2013-08-02 15:43:00,86.0,69.0,-100.00,ENE,68,7.0,-999.0,56,-99.99,,,-99.99,,2013-08-02 20:43:00,
2013-08-02 15:52:00,87.0,70.0,-100.00,NE,45,7.0,-999.0,56,-99.99,,,-99.99,,2013-08-02 20:52:00,
2013-08-02 16:02:00,87.0,70.0,-100.00,East,90,9.0,-999.0,57,-99.99,,,-99.99,,2013-08-02 21:02:00,
2013-08-02 16:12:00,87.0,70.0,-100.00,East,90,9.0,-999.0,57,-99.99,,,-99.99,,2013-08-02 21:12:00,
2013-08-02 16:22:00,87.0,69.0,-100.00,NE,45,7.0,-999.0,55,-99.99,,,-99.99,,2013-08-02 21:22:00,
2013-08-02 16:32:00,88.0,69.0,-100.00,ENE,68,8.0,-999.0,54,-99.99,,,-99.99,,2013-08-02 21:32:00,
2013-08-02 16:43:00,88.0,69.0,-100.00,ENE,68,8.0,-999.0,54,-99.99,,,-99.99,,2013-08-02 21:43:00,
2013-08-02 16:53:00,86.0,69.0,-100.00,ENE,68,8.0,-999.0,57,-99.99,,,-99.99,,2013-08-02 21:53:00,
2013-08-02 17:02:00,86.0,70.0,-100.00,East,90,12.0,-999.0,59,-99.99,,,-99.99,,2013-08-02 22:02:00,
2013-08-02 17:22:00,85.0,70.0,-100.00,ENE,68,11.0,-999.0,60,-99.99,,,-99.99,,2013-08-02 22:22:00,
2013-08-02 17:32:00,85.0,70.0,-100.00,ENE,68,11.0,-999.0,61,-99.99,,,-99.99,,2013-08-02 22:32:00,
2013-08-02 17:43:00,85.0,70.0,-100.00,ENE,68,11.0,-999.0,61,-99.99,,,-99.99,,2013-08-02 22:43:00,
2013-08-02 17:52:00,85.0,70.0,-100.00,East,90,11.0,-999.0,61,-99.99,,,-99.99,,2013-08-02 22:52:00,
2013-08-02 18:02:00,85.0,71.0,-100.00,East,90,11.0,-999.0,62,-99.99,,,-99.99,,2013-08-02 23:02:00,
2013-08-02 18:12:00,85.0,71.0,-100.00,East,90,11.0,-999.0,62,-99.99,,,-99.99,,2013-08-02 23:12:00,
2013-08-02 18:22:00,85.0,71.0,-100.00,ENE,68,9.0,-999.0,61,-99.99,,,-99.99,,2013-08-02 23:22:00,
2013-08-02 18:32:00,85.0,71.0,-100.00,East,90,7.0,-999.0,63,-99.99,,,-99.99,,2013-08-02 23:32:00,
2013-08-02 18:43:00,85.0,71.0,-100.00,East,90,7.0,-999.0,63,-99.99,,,-99.99,,2013-08-02 23:43:00,
2013-08-02 18:53:00,84.0,70.0,-100.00,East,90,11.0,-999.0,63,-99.99,,,-99.99,,2013-08-02 23:53:00,
2013-08-02 19:02:00,83.0,71.0,-100.00,East,90,10.0,-999.0,65,-99.99,,,-99.99,,2013-08-03 00:02:00,
2013-08-02 19:22:00,83.0,71.0,-100.00,East,90,9.0,-999.0,66,-99.99,,,-99.99,,2013-08-03 00:22:00,
2013-08-02 19:33:00,82.0,71.0,-100.00,ESE,113,8.0,-999.0,68,-99.99,,,-99.99,,2013-08-03 00:33:00,
2013-08-02 19:43:00,82.0,71.0,-100.00,ESE,113,8.0,-999.0,68,-99.99,,,-99.99,,2013-08-03 00:43:00,
2013-08-02 19:52:00,82.0,72.0,-100.00,East,90,12.0,-999.0,72,-99.99,,,-99.99,,2013-08-03 00:52:00,
2013-08-02 20:02:00,82.0,72.0,-100.00,East,90,8.0,-999.0,73,-99.99,,,-99.99,,2013-08-03 01:02:00,
2013-08-02 20:22:00,81.0,72.0,-100.00,ESE,113,10.0,-999.0,74,-99.99,,,-99.99,,2013-08-03 01:22:00,
2013-08-02 20:32:00,80.0,73.0,-100.00,East,90,8.0,-999.0,77,-99.99,,,-99.99,,2013-08-03 01:32:00,
2013-08-02 20:42:00,80.0,73.0,-100.00,East,90,8.0,-999.0,77,-99.99,,,-99.99,,2013-08-03 01:42:00,
2013-08-02 20:53:00,79.0,73.0,-100.00,East,90,8.0,-999.0,80,-99.99,,,-99.99,,2013-08-03 01:53:00,
2013-08-02 21:02:00,78.0,73.0,-100.00,East,90,8.0,-999.0,83,-99.99,,,-99.99,,2013-08-03 02:02:00,
2013-08-02 21:22:00,77.0,73.0,-100.00,East,90,12.0,-999.0,85,-99.99,,,-99.99,,2013-08-03 02:22:00,
2013-08-02 21:32:00,77.0,72.0,-100.00,East,90,8.0,-999.0,86,-99.99,,,-99.99,,2013-08-03 02:32:00,
2013-08-02 21:43:00,77.0,72.0,-100.00,East,90,8.0,-999.0,86,-99.99,,,-99.99,,2013-08-03 02:43:00,
2013-08-02 21:52:00,76.0,72.0,-100.00,East,90,9.0,-999.0,87,-99.99,,,-99.99,,2013-08-03 02:52:00,
2013-08-02 22:02:00,75.0,72.0,-100.00,East,90,9.0,-999.0,88,-99.99,,,-99.99,,2013-08-03 03:02:00,
2013-08-02 22:22:00,75.0,71.0,-100.00,East,90,10.0,-999.0,89,-99.99,,,-99.99,,2013-08-03 03:22:00,
2013-08-02 22:32:00,74.0,71.0,-100.00,ESE,113,7.0,-999.0,89,-99.99,,,-99.99,,2013-08-03 03:32:00,
2013-08-02 22:43:00,74.0,71.0,-100.00,ESE,113,7.0,-999.0,89,-99.99,,,-99.99,,2013-08-03 03:43:00,
2013-08-02 22:53:00,74.0,70.0,-100.00,ESE,113,8.0,-999.0,89,-99.99,,,-99.99,,2013-08-03 03:53:00,
2013-08-02 23:02:00,74.0,70.0,-100.00,ESE,113,8.0,-999.0,89,-99.99,,,-99.99,,2013-08-03 04:02:00,
2013-08-02 23:22:00,73.0,70.0,-100.00,ESE,113,5.0,-999.0,90,-99.99,,,-99.99,,2013-08-03 04:22:00,
2013-08-02 23:32:00,72.0,69.0,-100.00,ESE,113,5.0,-999.0,90,-99.99,,,-99.99,,2013-08-03 04:32:00,
2013-08-02 23:43:00,72.0,69.0,-100.00,ESE,113,5.0,-999.0,90,-99.99,,,-99.99,,2013-08-03 04:43:00,
2013-08-02 23:53:00,72.0,69.0,-100.00,ESE,113,7.0,-999.0,91,-99.99,,,-99.99,,2013-08-03 04:53:00,